• Join FlightAware (Why Join?)
  • Login
  • US Flag 
11:52AM EST


 

Airport Tracker/Info


-or-


 

Live Flight TrackerFlight Track Log ✈ N315CJ ✈ 25-Nov-2013 ✈ KGRR - KORF

Flight Track Log - Related Links

Times and Time Zones

All times are in EST time to prevent confusion due to time zone crossing. See the N315CJ flight status page for this flight to view local times or setup timezone preferences in your user account.

Time Position Orientation Groundspeed Altitude Reporting Facility
EST Latitude Longitude Course Direction KTS MPH feet Rate Location/Type
08:17AM 42.8533 -85.5100 135° Southeast 181 208 2,800  Level Cleveland Center
08:18AM 42.7994 -85.4439 138° Southeast 242 278 7,700 4,264 Climbing Chicago Center
08:19AM 42.7556 -85.3794 133° Southeast 260 299 11,400 3,366 Climbing Chicago Center
08:20AM 42.6892 -85.2825 133° Southeast 294 338 14,600 2,878 Climbing Chicago Center
08:21AM 42.6286 -85.1964 134° Southeast 313 360 17,300 2,341 Climbing Chicago Center
08:22AM 42.7077 -85.2092 135° Southeast  Level Estimated
08:22AM 42.5664 -85.1069 133° Southeast 326 375 19,400  Level Chicago Center
08:23AM 42.5000 -85.0131 134° Southeast 343 395 21,500 1,951 Climbing Chicago Center
08:24AM 42.4319 -84.9144 133° Southeast 356 410 23,400 1,951 Climbing Chicago Center
08:25AM 42.3619 -84.8161 134° Southeast 364 419 25,500 1,742 Climbing Chicago Center
08:26AM 42.2911 -84.7178 134° Southeast 366 421 27,000 1,805 Climbing Chicago Center
08:27AM 42.2039 -84.5939 134° Southeast 380 437 29,200 1,902 Climbing Chicago Center
08:28AM 42.1306 -84.4917 134° Southeast 380 437 30,900 1,984 Climbing Chicago Center
08:29AM 42.0583 -84.3889 133° Southeast 380 437 33,300 1,951 Climbing Chicago Center
08:30AM 41.9850 -84.2894 135° Southeast 377 434 34,900 829 Climbing Chicago Center
08:31AM 41.9106 -84.1858 134° Southeast 391 450 35,000 48 Climbing Chicago Center
08:32AM 41.8242 -84.0661 134° Southeast 427 491 35,000  Level Chicago Center
08:33AM 41.7200 -83.9239 134° Southeast 443 510 35,000  Level Chicago Center
08:34AM 41.6367 -83.8086 134° Southeast 437 503 35,000  Level Chicago Center
08:35AM 41.5517 -83.6944 135° Southeast 434 499 35,000  Level Chicago Center
08:36AM 41.4653 -83.5767 134° Southeast 426 490 35,000  Level Cleveland Center
08:37AM 41.3822 -83.4650 135° Southeast 427 491 35,000  Level Cleveland Center
08:38AM 41.2997 -83.3528 134° Southeast 427 491 35,000  Level Cleveland Center
08:39AM 41.1994 -83.2183 135° Southeast 429 494 35,000  Level Cleveland Center
08:40AM 41.1128 -83.1019 135° Southeast 430 495 35,000  Level Cleveland Center
08:41AM 41.0275 -82.9892 135° Southeast 430 495 35,000  Level Cleveland Center
08:42AM 40.9417 -82.8750 135° Southeast 434 499 35,000  Level Cleveland Center
08:43AM 40.9122 -82.8375 136° Southeast 435 501 35,000  Level Cleveland Center
08:44AM 40.8272 -82.7242 135° Southeast 434 499 35,000  Level Cleveland Center
08:45AM 40.7247 -82.5906 135° Southeast 439 505 35,000  Level Cleveland Center
08:46AM 40.6375 -82.4764 135° Southeast 440 506 35,000  Level Cleveland Center
08:47AM 40.5503 -82.3639 136° Southeast 438 504 35,000  Level Cleveland Center
08:48AM 40.4622 -82.2492 135° Southeast 442 509 35,000  Level Cleveland Center
08:49AM 40.3739 -82.1347 135° Southeast 442 509 35,000  Level Cleveland Center
08:50AM 40.2917 -82.0283 135° Southeast 440 506 35,000  Level Cleveland Center
08:51AM 40.1858 -81.8928 136° Southeast 443 510 35,000  Level Cleveland Center
08:52AM 40.0942 -81.7769 136° Southeast 442 509 35,000  Level Cleveland Center
08:53AM 40.0092 -81.6689 136° Southeast 443 510 35,000  Level Cleveland Center
08:54AM 39.9214 -81.5572 136° Southeast 441 507 35,000  Level Cleveland Center
08:55AM 39.8328 -81.4450 136° Southeast 444 511 35,000  Level Cleveland Center
08:56AM 39.7361 -81.3231 136° Southeast 448 516 35,000  Level Cleveland Center
08:58AM 39.5939 -81.1461 136° Southeast 446 513 35,000  Level Cleveland Center
08:59AM 39.5172 -81.0497 136° Southeast 451 519 35,000  Level Indianapolis Center
09:00AM 39.4269 -80.9378 136° Southeast 448 516 35,000  Level Indianapolis Center
09:01AM 39.3361 -80.8250 136° Southeast 449 517 35,000  Level Indianapolis Center
09:02AM 39.2431 -80.7114 137° Southeast 455 524 35,000  Level Indianapolis Center
09:03AM 39.1497 -80.5989 137° Southeast 454 522 35,000  Level Indianapolis Center
09:04AM 39.0597 -80.4844 135° Southeast 453 521 35,000  Level Indianapolis Center
09:05AM 38.9428 -80.3600 140° Southeast 456 525 35,000 -242 Level Indianapolis Center
09:06AM 38.8356 -80.2811 150° Southeast 448 516 34,500 -878 Descending Indianapolis Center
09:07AM 38.7311 -80.2006 149° Southeast 438 504 33,200 -927 Descending Indianapolis Center
09:08AM 38.6331 -80.0972 141° Southeast 455 524 32,600 -726 Descending Indianapolis Center
09:09AM 38.5506 -79.9858 133° Southeast 467 537 31,700 -823 Descending Indianapolis Center
09:10AM 38.4456 -79.8414 133° Southeast 471 542 30,900 -878 Descending Indianapolis Center
09:11AM 38.3569 -79.7203 133° Southeast 475 547 29,900 -976 Descending Indianapolis Center
09:12AM 38.2692 -79.6006 133° Southeast 473 544 28,900 -919 Descending Indianapolis Center
09:13AM 38.1806 -79.4822 134° Southeast 472 543 28,000 -1,362 Descending Indianapolis Center
09:14AM 38.0692 -79.3319 133° Southeast 459 528 25,700 -1,286 Descending Washington Center
09:15AM 37.9911 -79.2253 133° Southeast 436 502 25,000 -843 Descending Washington Center
09:16AM 37.9128 -79.1189 133° Southeast 422 486 24,000 -966 Descending Washington Center
09:17AM 37.8667 -78.9850 114° Southeast 409 471 23,100 -645 Descending Washington Center
09:21AM 37.7159 -78.4656 114° Southeast 421 484 21,000 -339 Descending FlightAware ADS-B (KWWD)
09:23AM 37.6147 -78.1198 110° East 421 484 21,000  Level FlightAware ADS-B (KWWD)
09:24AM 37.5919 -78.0426 110° East 420 483 21,000  Level FlightAware ADS-B (KWWD)
09:25AM 37.5638 -77.9474 110° East 418 481 21,000  Level FlightAware ADS-B (KWWD)
09:25AM 37.5424 -77.8755 110° East 416 479 21,000  Level FlightAware ADS-B (KWWD)
09:26AM 37.5272 -77.7962 104° East 420 483 21,000  Level FlightAware ADS-B (KWWD)
09:26AM 37.5213 -77.7152 95° East 420 483 21,000 -452 Level FlightAware ADS-B (KWWD)
09:28AM 37.5023 -77.4427 95° East 407 468 19,900 -764 Descending FlightAware ADS-B (KWWD)
09:29AM 37.4953 -77.3447 95° East 399 459 19,000 -1,267 Descending FlightAware ADS-B (KWWD)
09:30AM 37.4875 -77.2363 95° East 384 442 18,000 -1,259 Descending FlightAware ADS-B (KWWD)
09:30AM 37.4820 -77.1603 95° East 380 437 17,300 -1,200 Descending FlightAware ADS-B (KWWD)
09:31AM 37.4772 -77.0952 95° East 380 437 16,700 -1,273 Descending FlightAware ADS-B (KWWD)
09:31AM 37.4712 -77.0132 95° East 382 440 15,900 -1,360 Descending FlightAware ADS-B (KWWD)
09:32AM 37.4649 -76.9275 95° East 382 440 15,000 -1,421 Descending FlightAware ADS-B (KWWD)
09:33AM 37.4589 -76.8477 95° East 372 428 14,100 -1,433 Descending FlightAware ADS-B (KWWD)
09:33AM 37.4541 -76.7848 95° East 367 422 13,400 -250 Descending FlightAware ADS-B (KWWD)
09:35AM 37.4194 -76.5041 99° East 355 409 13,400  Level FlightAware ADS-B (KWWD)
09:36AM 37.3890 -76.4080 112° Southeast 347 399 13,400  Level FlightAware ADS-B (KWWD)
09:37AM 37.3709 -76.3965 153° Southeast 336 387 13,400 -140 Level FlightAware ADS-B (KWWD)
09:37AM 37.3263 -76.3795 163° South 335 386 13,300 -618 Descending FlightAware ADS-B (KWWD)
09:38AM 37.2758 -76.3644 163° South 333 383 12,700 -1,268 Descending Washington Center
09:38AM 37.2386 -76.3483 161° South 306 352 11,800 -2,073 Descending Washington Center
09:39AM 37.1989 -76.3403 171° South 299 344 10,800 -1,967 Descending Washington Center
09:39AM 37.1572 -76.3214 160° South 300 345 9,800 -2,000 Descending Washington Center
09:40AM 37.1136 -76.3108 169° South 292 336 8,600 -2,000 Descending Washington Center
09:40AM 37.0803 -76.2975 162° South 300 345 7,800 -1,900 Descending Washington Center
09:41AM 37.0386 -76.2892 171° South 274 315 6,700 -1,967 Descending Washington Center
09:41AM 37.0053 -76.2758 162° South 294 338 5,800 -1,770 Descending Washington Center
09:42AM 36.9614 -76.2678 172° South 269 310 4,900 -1,300 Descending Washington Center
09:42AM 36.9344 -76.2572 163° South 276 318 4,500 -1,258 Descending Washington Center
09:43AM 36.8969 -76.2439 164° South 251 289 3,600 -1,333 Descending Washington Center
09:44AM 36.8367 -76.2172 161° South 206 237 2,500 -992 Descending Washington Center
09:45AM 36.8386 -76.2589 273° West 194 223 1,600 -1,041 Descending Washington Center
09:46AM 36.8761 -76.2256 35° Northeast 133 153 400 -1,180 Descending Washington Center